Durant, OK

9:02 PM CST on December 07, 2019 (GMT -0600)
Eaker

Weather History for KDUA - October, 2019

Change the Weather History Date:

Thursday, October 17, 2019

  Actual Average (KMLC) Record (KMLC)
Temperature  
Mean Temperature 60 °F -  
Max Temperature 75 °F 73 °F 91 °F (1972)
Min Temperature 44 °F 50 °F 35 °F (1976)
Degree Days  
Heating Degree Days 6    
Growing Degree Days 10 (Base 50)    
Moisture  
Dew Point 43 °F    
Average Humidity 65    
Maximum Humidity 94    
Minimum Humidity 24    
Precipitation  
Precipitation 0.00 in - - ()
Sea Level Pressure  
Sea Level Pressure 30.05 in    
Wind  
Wind Speed 2 mph (SSE)    
Max Wind Speed 9 mph    
Max Gust Speed -    
Visibility 7 miles    
Events      
Averages and records for this station are not official NWS values.
T = Trace of Precipitation, MM = Missing Value Source: NWS Daily Summary

Daily Weather History Graph

Daily Weather History Graph

Search for Another Location

Airport or City:

Astronomy

Oct. 17, 2019 Rise Set
Actual Time 7:32 AM CDT 6:49 PM CDT
Civil Twilight 7:06 AM CDT 7:14 PM CDT
Nautical Twilight 6:37 AM CDT 7:43 PM CDT
Astronomical Twilight 6:08 AM CDT 8:12 PM CDT
Moon 9:30 PM CDT (10/17) 10:57 AM CDT (10/17)
Length of Visible Light 12h 07m
Length of Day
11h 17m
Waning Gibbous, 86% of the Moon is Illuminated
Oct 17
Waning Gibbous
Oct 21
Last Quarter
Oct 27
New
Nov 4
First Quarter
Nov 12
Full

Hourly Weather History & Observations

Time (CDT) Temp. Dew Point Humidity Pressure Visibility Wind Dir Wind Speed Gust Speed Precip Events Conditions
12:17 AM 50.0 °F 44.6 °F 82% 30.13 in 10.0 mi Calm Calm - N/A   Clear
12:35 AM 50.0 °F 44.6 °F 82% 30.13 in 10.0 mi Calm Calm - N/A   Clear
12:57 AM 50.0 °F 44.6 °F 82% 30.13 in 10.0 mi Calm Calm - N/A   Clear
1:16 AM 48.2 °F 42.8 °F 82% 30.13 in 10.0 mi Calm Calm - N/A   Clear
1:37 AM 48.2 °F 44.6 °F 87% 30.13 in 10.0 mi Calm Calm - N/A   Clear
1:57 AM 48.2 °F 42.8 °F 82% 30.13 in 10.0 mi Calm Calm - N/A   Clear
2:17 AM 48.2 °F 44.6 °F 87% 30.13 in 10.0 mi Calm Calm - N/A   Clear
2:38 AM 48.2 °F 44.6 °F 87% 30.12 in 10.0 mi Calm Calm - N/A   Clear
2:55 AM 48.2 °F 44.6 °F 87% 30.12 in 7.0 mi Calm Calm - N/A   Clear
3:15 AM 48.2 °F 44.6 °F 87% 30.11 in 7.0 mi Calm Calm - N/A   Clear
3:37 AM 48.2 °F 42.8 °F 82% 30.11 in 10.0 mi Calm Calm - N/A   Clear
3:55 AM 46.4 °F 42.8 °F 87% 30.11 in 10.0 mi Calm Calm - N/A   Clear
4:37 AM 46.4 °F 42.8 °F 87% 30.10 in 5.0 mi Calm Calm - N/A   Clear
5:15 AM 44.6 °F 42.8 °F 93% 30.11 in 0.8 mi Calm Calm - N/A   Mist
5:56 AM 46.4 °F 42.8 °F 87% 30.11 in 10.0 mi Calm Calm - N/A   Clear
6:17 AM 46.4 °F 42.8 °F 87% 30.11 in 10.0 mi Calm Calm - N/A   Clear
6:55 AM 44.6 °F 41.0 °F 87% 30.09 in 1.0 mi Calm Calm - N/A   Mist
7:56 AM 44.6 °F 42.8 °F 93% 30.08 in 10.0 mi Calm Calm - N/A   Clear
8:16 AM 46.4 °F 42.8 °F 87% 30.08 in 10.0 mi Calm Calm - N/A   Clear
8:36 AM 48.2 °F 44.6 °F 87% 30.09 in 3.0 mi Calm Calm - N/A   Clear
8:56 AM 50.0 °F 48.2 °F 94% 30.10 in 10.0 mi Calm Calm - N/A   Clear
9:38 AM 55.4 °F 46.4 °F 72% 30.10 in 1.8 mi South 5.8 mph - N/A   Haze
9:56 AM 57.2 °F 46.4 °F 67% 30.10 in 4.0 mi SSE 5.8 mph - N/A   Haze
10:36 AM 62.6 °F 44.6 °F 52% 30.10 in 7.0 mi SE 4.6 mph - N/A   Clear
10:57 AM 64.4 °F 44.6 °F 49% 30.09 in 7.0 mi South 5.8 mph - N/A   Clear
11:17 AM 66.2 °F 42.8 °F 43% 30.09 in 7.0 mi SE 5.8 mph - N/A   Clear
11:36 AM 66.2 °F 42.8 °F 43% 30.08 in 5.0 mi SSE 4.6 mph - N/A   Haze
11:58 AM 66.2 °F 42.8 °F 43% 30.08 in 7.0 mi ESE 5.8 mph - N/A   Clear
12:57 PM 71.6 °F 39.2 °F 31% 30.05 in 5.0 mi SSE 3.5 mph - N/A   Haze
1:57 PM 73.4 °F 39.2 °F 29% 30.03 in 10.0 mi SSE 8.1 mph - N/A   Clear
2:36 PM 75.2 °F 39.2 °F 27% 30.00 in 10.0 mi South 6.9 mph - N/A   Clear
3:16 PM 75.2 °F 37.4 °F 25% 29.99 in 10.0 mi SSW 5.8 mph - N/A   Clear
3:36 PM 75.2 °F 39.2 °F 27% 29.99 in 10.0 mi SE 5.8 mph - N/A   Clear
3:57 PM 75.2 °F 37.4 °F 25% 29.98 in 10.0 mi South 6.9 mph - N/A   Clear
4:18 PM 75.2 °F 35.6 °F 24% 29.97 in 1.8 mi SE 5.8 mph - N/A   Haze
4:56 PM 75.2 °F 37.4 °F 25% 29.96 in 3.0 mi SSE 6.9 mph - N/A   Haze
5:16 PM 75.2 °F 37.4 °F 25% 29.96 in 2.5 mi SSE 9.2 mph - N/A   Haze
5:36 PM 73.4 °F 37.4 °F 27% 29.96 in 4.0 mi SSE 8.1 mph - N/A   Haze
5:56 PM 73.4 °F 39.2 °F 29% 29.96 in 1.2 mi SSE 5.8 mph - N/A   Haze
6:16 PM 71.6 °F 37.4 °F 29% 29.95 in 1.2 mi SE 4.6 mph - N/A   Haze
6:56 PM 66.2 °F 41.0 °F 40% 29.96 in 7.0 mi ESE 4.6 mph - N/A   Clear
7:56 PM 59.0 °F 44.6 °F 59% 29.97 in 10.0 mi ESE 3.5 mph - N/A   Clear
8:16 PM 57.2 °F 44.6 °F 63% 29.97 in 10.0 mi SE 4.6 mph - N/A   Clear
8:56 PM 55.4 °F 44.6 °F 67% 29.97 in 1.5 mi SSE 6.9 mph - N/A   Haze
9:18 PM 55.4 °F 46.4 °F 72% 29.97 in 7.0 mi SSE 5.8 mph - N/A   Clear
9:37 PM 55.4 °F 46.4 °F 72% 29.97 in 10.0 mi South 4.6 mph - N/A   Clear
9:58 PM 53.6 °F 46.4 °F 77% 29.97 in 0.8 mi SSE 4.6 mph - N/A   Haze
10:17 PM 53.6 °F 46.4 °F 77% 29.97 in 10.0 mi SE 3.5 mph - N/A   Clear
10:36 PM 53.6 °F 46.4 °F 77% 29.97 in 5.0 mi Calm Calm - N/A   Haze
10:56 PM 51.8 °F 46.4 °F 82% 29.96 in 10.0 mi SSE 4.6 mph - N/A   Clear
11:16 PM 51.8 °F 46.4 °F 82% 29.96 in 7.0 mi SSE 3.5 mph - N/A   Clear
11:57 PM 51.8 °F 46.4 °F 82% 29.95 in 7.0 mi Calm Calm - N/A   Clear